Other Public Products
Issued by NWS Grand Forks, ND

Home | Current Version | Previous Version | Graphics & Text | Print | Product List | Glossary On
Versions: 1 2 3 4 5 6 7 8 9 10 11 12 13 14 15 16 17 18 19 20 21 22 23 24 25 26 27 28 29 30 31 32 33 34 35 36 37 38 39 40 41 42 43 44 45 46 47 48 49 50
000
FPUS83 KFGF 280410
OPUFGF
PRAIRIE TO PINES WEATHER ROUNDUP
NATIONAL WEATHER SERVICE EASTERN NORTH DAKOTA/GRAND FORKS ND
1100 PM CDT SUN JUL 27 2014

 **SATELLITE DATA USED TO AUGMENT SKY COVER AT AUTOMATED STATIONS**
 *****  WEATHER ACROSS EASTERN NORTH DAKOTA  *****

CITY           SKY/WX    TMP DP  RH WIND       PRES   REMARKS
GRAND FORKS    CLOUDY    61  57  87 NW3       30.21R
GRAND FORKS AF CLOUDY    61  57  89 NW6       30.23R
GRAND CITY NWS   N/A     63 N/A N/A NW5         N/A
BUXTON         NOT AVBL
DEVILS LAKE    CLOUDY    59  52  77 NW6       30.25S
FARGO          MOCLDY    60  56  86 N6        30.20R
WAHPETON ARPT  MOCLDY    61  54  77 NW6       30.20S
$$

 *****  WEATHER ACROSS CENTRAL AND WESTERN NORTH DAKOTA  *****

CITY           SKY/WX    TMP DP  RH WIND       PRES   REMARKS
JAMESTOWN      CLOUDY    61  54  77 N7        30.25R
BISMARCK       CLEAR     57  51  80 CALM      30.29R
MINOT          CLEAR     60  52  74 S5        30.28S
MINOT AFB      CLEAR     54  54  99 W3        30.28R
GARRISON         N/A     55  51  86 CALM      30.29S
WILLISTON      CLEAR     63  53  70 E3        30.29R
DICKINSON      CLEAR     57  51  80 E7        30.30R
HETTINGER      CLEAR     55  50  83 E5        30.32R
$$

 *****  OTHER OBSERVATIONS NORTHEAST NORTH DAKOTA  *****

CITY           SKY/WX    TMP DP  RH WIND       PRES   REMARKS
WALHALLA         N/A     59  57  94 NW5         N/A
LANGDON        FAIR      54  52  94 NW6       30.26R
CAVALIER       MOCLDY    57  54  88 W6        30.23R
GRAFTON        FAIR      61  55  82 NW7       30.22R
CANDO          CLOUDY    57  55  94 NW3       30.27S
FORT TOTTEN    NOT AVBL
ROLLA          CLOUDY    54  54 100 NW5       30.29S
RUGBY          FAIR      55  55 100 CALM      30.27S
 ***** THE ABOVE OBSERVATIONS ARE NON NWS ARE NOT QUALITY
        CONTROLLED AND MAY MIS-REPORT RAIN FOR SNOW...
$$

 *****  OTHER OBSERVATIONS SOUTHEAST NORTH DAKOTA *****

CITY           SKY/WX    TMP DP  RH WIND       PRES   REMARKS
COOPERSTOWN    NOT AVBL
VALLEY CITY    CLOUDY    63  57  82 N8        30.24R
OAKES          NOT AVBL
GWINNER        PTCLDY    61  57  88 NW6       30.23S
BUFFALO        NOT AVBL
WYNDMERE       NOT AVBL
 ***** THE ABOVE OBSERVATIONS ARE NON NWS ARE NOT QUALITY
       CONTROLLED AND MAY MIS-REPORT RAIN FOR SNOW...
$$

  *****  WEATHER ACROSS NORTHERN MINNESOTA  *****

CITY           SKY/WX    TMP DP  RH WIND       PRES   REMARKS
FLAG ISLAND    PTCLDY    64  55  72 NW9       30.16R
WARROAD        PTCLDY    59  54  82 W6        30.19R
ROSEAU         CLEAR     57  54  88 NW7       30.19S
HALLOCK        PTCLDY    61  55  82 N7        30.21R
THF RVR FALLS  CLOUDY    61  57  88 NW6       30.21R
HALSTAD          N/A     60  57  92 N5          N/A
FOSSTON        CLOUDY    59  55  88 NW5       30.20S
BAUDETTE       CLEAR     58  54  86 CALM      30.17R
WASKISH        CLOUDY    63  55  77 NW7       30.17R
CROOKSTON      CLOUDY    61  59  94 NW6       30.21S
$$
  *****  WEATHER ACROSS CENTRAL AND WEST MINNESOTA  *****

CITY           SKY/WX    TMP DP  RH WIND       PRES   REMARKS
BEMIDJI        CLOUDY    60  55  83 NW7       30.18R
PARK RAPIDS    CLOUDY    62  58  86 N9        30.18R
WADENA         CLOUDY    61  57  88 NW3       30.18R
DETROIT LAKES  MOCLDY    61  57  88 NW7       30.21R
MOORHEAD       CLEAR     59  59 100 N5        30.21S
FERGUS FALLS   CLOUDY    63  55  77 N5        30.19R
ELBOW LAKE     CLOUDY    62  58  87 N9        30.18R
MORRIS MN      MOCLDY    61  57  88 NW8       30.18R
STAPLES        CLOUDY    61  55  82 N5        30.17R
WHEATON        NOT AVBL
$$
  *****  WEATHER ELSEWHERE ACROSS MINNESOTA  *****

CITY           SKY/WX    TMP DP  RH WIND       PRES   REMARKS
DULUTH         PTCLDY    57  54  89 NW5       30.11R
INTRNTL FALLS  CLEAR     52  51  97 CALM      30.14R
ELY            CLEAR     52  50  93 CALM      30.13R
CLOQUET        CLEAR     55  54  94 W5        30.12R
BRAINERD       CLOUDY    64  55  72 N8        30.16R
HIBBING        PTCLDY    55  52  89 NW3       30.13R
ALEXANDRIA     CLOUDY    62  59  90 N13G21    30.19R FOG
SAINT CLOUD    PTCLDY    64  57  78 CALM      30.14R
MINNEAPOLIS    MOCLDY    66  57  72 N6        30.12R
$$

  *****  WEATHER ACROSS SOUTH DAKOTA  *****

CITY           SKY/WX    TMP DP  RH WIND       PRES   REMARKS
SIOUX FALLS    MOCLDY    63  57  81 N9        30.21R
BROOKINGS      NOT AVBL
WATERTOWN      CLOUDY    62  54  74 N13       30.22R
HURON          CLEAR     55  53  93 NW6       30.24R
SISSETON         N/A     57  56  96 N7        30.20R
ABERDEEN       CLEAR     55  53  93 NW7       30.25R
MITCHELL       CLEAR     60  55  83 NW5       30.25R
PIERRE         CLEAR     61  54  77 NE9       30.26R
MOBRIDGE       CLEAR     54  51  90 N6        30.27R
RAPID CITY     CLEAR     63  52  67 E8        30.32R
$$

  *****  SOME WEATHER IN NEARBY STATES *****

CITY           SKY/WX    TMP DP  RH WIND       PRES   REMARKS
GLASGOW MT     CLEAR     66  49  54 E10       30.24R
GREAT FALLS MT PTCLDY    75  38  26 E9        30.20R
CHEYENNE WY    CLEAR     66  47  50 E8        30.42R
SCOTTSBLUFF NE CLEAR     69  55  60 E7        30.30R
OMAHA NE       PTCLDY    67  58  72 N9        30.17R
DES MOINES IA  CLEAR     68  57  68 NW12      30.09R
DAVENPORT IA   CLEAR     65  60  84 NW9       29.97S
CHICAGO IL     MOCLDY    65  57  75 N15G22    29.90R
EAU CLAIRE WI  CLEAR     57  52  83 NW6       30.08R
LA CROSSE WI   CLEAR     64  55  72 N9        30.05R
$$

  *****  SOME NATIONAL WEATHER *****

CITY           SKY/WX    TMP DP  RH WIND       PRES   REMARKS
LA GUARDIA NY  TSTM      81  72  74 SW7       29.63F
RALEIGH NC     CLOUDY    82  70  66 SW10      29.77R
ATLANTA GA     PTCLDY    83  72  69 W10       29.96F
NEW ORLEANS LA PTCLDY    82  76  81 SW12      30.07R
OKLAHOMA CITY  PTCLDY    81  58  45 NE9       30.12R
ALBUQUERQUE NM PTCLDY    75  54  47 N12       30.27R
SALT LAKE CITY MOCLDY    84  39  20 SE5       30.09R
LOS ANGELES CA MOCLDY    69  64  84 W16       29.94R
BOISE ID       MOCLDY    90  45  21 W6        29.98S
SEATTLE WA     PTCLDY    73  53  49 N8        30.10S
$$

*** WEATHER ACROSS MANITOBA...SASKATCHEWAN AND ONTARIO ***
                ***ONTARIO***

CITY           SKY/WX    TMP DP  RH WIND       PRES   REMARKS
GERALDTON      CLOUDY    54  50  87 CALM      30.03S
THUNDER BAY    CLOUDY    54  50  87 NW5       30.06S
SIOUX LOOKOUT  PTCLDY    52  52 100 N2        30.13R
TORONTO        HVY RAIN  64  61  88 NW9       29.66F
BIG TROUT LK   CLOUDY    63  55  77 VRB2      30.04S
PICKLE LAKE    NOT AVBL
DRYDEN         CLEAR     59  52  77 NW6       30.14S
KENORA         PTCLDY    63  50  63 N3        30.18R
$$
                *** MANITOBA***

CITY           SKY/WX    TMP DP  RH WIND       PRES   REMARKS
BRANDON        PTCLDY    54  50  87 NW6       30.27S
DAUPHIN        CLEAR     55  52  88 W3        30.26S
ISLAND LAKE    PTCLDY    64  57  77 NW5       30.15S
PILOT MOUND      N/A     55  54  94 NW5         N/A
THE PAS        MOCLDY    57  54  88 CALM      30.25S
THOMPSON       PTCLDY    57  52  82 NW3       30.19S
WINNIPEG       PTCLDY    54  52  94 W7        30.22S
LYNN LAKE      CLEAR     64  46  52 W6        30.23R
CHURCHILL      PTCLDY    66  54  63 NW9       30.06S
GILLAM         CLOUDY    59  55  88 CALM      30.11F
$$
                ***SASKATCHEWAN***

CITY           SKY/WX    TMP DP  RH WIND       PRES   REMARKS
ESTEVAN        MOCLDY    61  57  88 NE2       30.30S
KINDERSLEY     NOT AVBL
LLOYDMINSTER   CLEAR     59  54  82 NE3       30.23R
PRINCE ALBERT  PTCLDY    55  54  94 E2        30.26S
REGINA         PTCLDY    61  57  88 SE6       30.29R
YORKTON        CLEAR     57  52  82 CALM      30.29S



USA.gov is the U.S. government's official web portal to all federal, state and local government web resources and services.